Location: Davayat
(45.9471°N, 3.1105°E)
Time: 17:13:38
(UTC+00:00)

Cosmos 1656 Rocket - Pass Details

Date: 01 December 2020
Orbit: 796 x 846 km, 71.1° (Epoch: 17 January)

Event Time Altitude Azimuth Distance (km) Brightness Sun altitude
Rises 18:46:08 0° 329° (NNW) 3,403 7.2 -27.4°
Reaches altitude 10° 18:48:40 10° 324° (NW) 2,458 6.5 -27.9°
Maximum altitude 18:54:03 48° 252° (WSW) 1,073 4.5 -28.8°
Enters shadow 18:59:08 11° 179° (S) 2,336 6.0 -29.7°
